Location: Recife
(8.0585°S, 34.8848°W)
Time: 21:28:15
(UTC-03:00)

Explorer 11/Cluster Stage 4 - Pass Details

Date: 16 April 2026
Orbit: 463 x 1174 km, 28.8° (Epoch: 16 May)

Event Time Altitude Azimuth Distance (km) Brightness Sun altitude
Rises 21:04:25 0° 267° (W) 3,149 - -56.7°
Reaches altitude 10° 21:07:48 10° 248° (WSW) 2,074 - -57.5°
Maximum altitude 21:10:56 17° 207° (SSW) 1,529 - -58.3°
Drops below altitude 10° 21:13:45 10° 164° (SSE) 1,832 - -59.0°
Sets 21:16:30 0° 143° (SE) 2,630 - -59.6°
